Fort Benning, AL

4:20 AM CDT on June 26, 2017 (GMT -0500)
Lawson Army Air Field

Weather History for KLSF - May, 2013

Change the Weather History Date:

Wednesday, May 8, 2013

  Actual Average Record
Temperature  
Mean Temperature 62 °F -  
Max Temperature 80 °F 81 °F 91 °F (2002)
Min Temperature 45 °F 55 °F 39 °F (2007)
Degree Days  
Heating Degree Days 3    
Growing Degree Days 12 (Base 50)    
Moisture  
Dew Point 50 °F    
Average Humidity 89    
Maximum Humidity 100    
Minimum Humidity 43    
Precipitation  
Precipitation 0.00 in - - ()
Sea Level Pressure  
Sea Level Pressure 30.03 in    
Wind  
Wind Speed 2 mph (SE)    
Max Wind Speed 10 mph    
Max Gust Speed -    
Visibility 6 miles    
Events      
Averages and records for this station are not official NWS values.
T = Trace of Precipitation, MM = Missing Value Source: NWS Daily Summary

Daily Weather History Graph

Daily Weather History Graph

Search for Another Location

Airport or City:

Trip Planner

Search our weather history database for the weather conditions in past years. The results will help you decide how hot, cold, wet, or windy it might be!

Date:

Astronomy

May. 08, 2013 Rise Set
Actual Time 6:47 AM EDT 8:26 PM EDT
Civil Twilight 6:20 AM EDT 8:52 PM EDT
Nautical Twilight 5:48 AM EDT 9:24 PM EDT
Astronomical Twilight 5:15 AM EDT 9:58 PM EDT
Moon 5:50 AM EDT (5/8) 7:26 PM EDT (5/8)
Length of Visible Light 14h 32m
Length of Day
13h 39m
Waning Crescent, 2% of the Moon is Illuminated
May 8
Waning Crescent
May 9
New
May 18
First Quarter
May 25
Full
May 31
Last Quarter

Hourly Weather History & Observations

Time (EDT) Temp. Windchill Dew Point Humidity Pressure Visibility Wind Dir Wind Speed Gust Speed Precip Events Conditions
12:18 AM 50.0 °F - 50.0 °F 100% 30.02 in 6.0 mi SE 2.3 mph - N/A   Clear
12:23 AM 50.0 °F - 50.0 °F 100% 30.02 in 4.0 mi ESE 2.3 mph - N/A   Clear
12:28 AM 50.0 °F - 50.0 °F 100% 30.02 in 5.0 mi SE 2.3 mph - N/A   Clear
12:33 AM 50.0 °F - 50.0 °F 100% 30.02 in 9.0 mi SE 2.3 mph - N/A   Clear
12:48 AM 50.0 °F - 50.0 °F 100% 30.02 in 7.0 mi SE 1.2 mph - N/A   Clear
12:58 AM 50.4 °F - 50.0 °F 99% 30.03 in 3.0 mi Calm Calm - N/A   Clear
1:03 AM 50.0 °F - 50.0 °F 100% 30.02 in 2.5 mi Calm Calm - N/A   Clear
1:08 AM 50.0 °F - 50.0 °F 100% 30.02 in 4.0 mi Calm Calm - N/A   Clear
1:13 AM 50.0 °F - 48.2 °F 94% 30.02 in 4.0 mi Calm Calm - N/A   Clear
1:23 AM 50.0 °F - 50.0 °F 100% 30.02 in 6.0 mi Calm Calm - N/A   Clear
1:48 AM 48.2 °F - 48.2 °F 100% 30.01 in 3.0 mi SE 2.3 mph - N/A   Clear
1:58 AM 48.6 °F - 48.2 °F 99% 30.02 in 6.0 mi SE 2.3 mph - N/A   Clear
2:08 AM 48.2 °F - 48.2 °F 100% 30.01 in 4.0 mi SE 3.5 mph - N/A   Clear
2:13 AM 46.4 °F 45.2 °F 46.4 °F 100% 30.01 in 1.8 mi SE 3.5 mph - N/A   Clear
2:18 AM 46.4 °F - 46.4 °F 100% 30.00 in 1.0 mi ESE 2.3 mph - N/A   Clear
2:23 AM 46.4 °F - 46.4 °F 100% 30.00 in 1.2 mi ESE 2.3 mph - N/A   Clear
2:28 AM 46.4 °F - 46.4 °F 100% 30.00 in 1.8 mi ESE 2.3 mph - N/A   Clear
2:33 AM 48.2 °F - 46.4 °F 93% 30.00 in 1.5 mi ESE 1.2 mph - N/A   Clear
2:43 AM 48.2 °F - 48.2 °F 100% 30.00 in 4.0 mi SE 2.3 mph - N/A   Clear
2:53 AM 48.2 °F - 46.4 °F 93% 30.00 in 1.8 mi SE 2.3 mph - N/A   Clear
2:58 AM 46.4 °F 45.2 °F 46.4 °F 100% 30.01 in 2.0 mi ESE 3.5 mph - N/A   Clear
3:03 AM 46.4 °F - 46.4 °F 100% 30.00 in 7.0 mi ESE 2.3 mph - N/A   Clear
3:13 AM 46.4 °F - 46.4 °F 100% 30.00 in 3.0 mi ESE 1.2 mph - N/A   Clear
3:23 AM 48.2 °F - 46.4 °F 93% 30.00 in 1.5 mi ESE 2.3 mph - N/A   Clear
3:28 AM 46.4 °F - 46.4 °F 100% 30.00 in 1.2 mi SE 2.3 mph - N/A   Clear
3:33 AM 48.2 °F - 46.4 °F 93% 30.00 in 2.5 mi ESE 3.5 mph - N/A   Clear
3:38 AM 46.4 °F 44.3 °F 46.4 °F 100% 30.00 in 5.0 mi SE 4.6 mph - N/A   Clear
3:58 AM 47.3 °F - 47.1 °F 99% 30.02 in 10.0 mi SE 2.3 mph - N/A   Clear
4:18 AM 48.2 °F - 48.2 °F 100% 30.01 in 6.0 mi SE 1.2 mph - N/A   Clear
4:23 AM 48.2 °F - 46.4 °F 93% 30.01 in 3.0 mi SE 2.3 mph - N/A   Clear
4:33 AM 48.2 °F - 46.4 °F 93% 30.01 in 2.0 mi SE 1.2 mph - N/A   Clear
4:43 AM 46.4 °F - 46.4 °F 100% 30.01 in 4.0 mi ESE 2.3 mph - N/A   Clear
4:48 AM 46.4 °F - 46.4 °F 100% 30.01 in 2.5 mi ESE 2.3 mph - N/A   Clear
4:53 AM 46.4 °F 45.2 °F 46.4 °F 100% 30.01 in 3.0 mi SSE 3.5 mph - N/A   Clear
4:58 AM 46.4 °F 45.2 °F 46.4 °F 100% 30.02 in 6.0 mi SSE 3.5 mph - N/A   Clear
5:08 AM 46.4 °F - 46.4 °F 100% 30.01 in 10.0 mi SE 2.3 mph - N/A   Clear
5:58 AM 46.2 °F - 45.9 °F 99% 30.03 in 10.0 mi Calm Calm - N/A   Clear
6:13 AM 46.4 °F - 46.4 °F 100% 30.02 in 9.0 mi Calm Calm - N/A   Clear
6:33 AM 46.4 °F 45.2 °F 44.6 °F 93% 30.03 in 8.0 mi SE 3.5 mph - N/A   Clear
6:58 AM 45.7 °F - 45.5 °F 99% 30.05 in 10.0 mi SE 2.3 mph - N/A   Clear
7:58 AM 51.4 °F - 50.9 °F 98% 30.08 in 10.0 mi Calm Calm - N/A   Clear
8:58 AM 57.4 °F - 53.2 °F 86% 30.09 in 10.0 mi East 2.3 mph - N/A   Clear
9:58 AM 64.2 °F - 54.9 °F 72% 30.10 in 10.0 mi West 2.3 mph - N/A   Clear
10:58 AM 70.5 °F - 54.0 °F 56% 30.10 in 10.0 mi NW 5.8 mph - N/A   Clear
11:58 AM 73.2 °F - 54.3 °F 51% 30.10 in 10.0 mi WSW 8.1 mph - N/A   Clear
12:58 PM 74.7 °F - 55.0 °F 50% 30.08 in 10.0 mi WNW 10.4 mph - N/A   Scattered Clouds
1:58 PM 77.5 °F - 54.7 °F 45% 30.08 in 10.0 mi Variable 2.3 mph - N/A   Clear
2:58 PM 79.2 °F - 55.0 °F 43% 30.07 in 10.0 mi WNW 8.1 mph - N/A   Scattered Clouds
3:58 PM 78.6 °F - 55.2 °F 44% 30.05 in 10.0 mi West 9.2 mph - N/A   Scattered Clouds
4:58 PM 79.2 °F - 56.5 °F 46% 30.04 in 10.0 mi Variable 6.9 mph - N/A   Scattered Clouds
5:58 PM 79.5 °F - 55.6 °F 44% 30.03 in 10.0 mi West 8.1 mph - N/A   Partly Cloudy
6:58 PM 78.4 °F - 56.3 °F 46% 30.03 in 10.0 mi WNW 5.8 mph - N/A   Clear
7:58 PM 73.2 °F - 59.7 °F 63% 30.04 in 10.0 mi West 2.3 mph - N/A   Clear
8:58 PM 64.2 °F - 58.8 °F 83% 30.05 in 10.0 mi SE 3.5 mph - N/A   Clear
9:58 PM 61.9 °F - 58.8 °F 90% 30.07 in 10.0 mi Calm Calm - N/A   Clear
10:58 PM 59.4 °F - 57.6 °F 94% 30.09 in 10.0 mi SE 3.5 mph - N/A   Clear
11:58 PM 57.6 °F - 56.8 °F 97% 30.09 in 10.0 mi SE 3.5 mph - N/A   Clear